User: anonymous   Login
Location: Boiro
(42.6475°N, 8.8834°W)
Time: 06:05:38
(UTC+02:00)
Language:

AO-109 - Orbit

View from above orbital plane
View from above orbital plane
View from above satellite
View from above satellite

Ground track
Ground track

The orbit data is extracted from the following two-line orbital elements,

1 47311U 21002C   24106.88752386  .01068265  62146-3  16340-2 0  9997
2 47311  60.6584 301.0843 0002526  88.5774 271.5640 16.04107743181547
Epoch (UTC): 15 April 2024 21:18:02
Eccentricity: 0.0002526
inclination: 60.6584°
perigee height: 261 km
apogee height: 265 km
right ascension of ascending node: 301.0843°
argument of perigee: 88.5774°
revolutions per day: 16.04107743
mean anomaly at epoch: 271.5640°
orbit number at epoch: 18154

The dashed part of the orbit path shows where the satellite is in the earth's shadow,  

DLR